Weather Roundup
Issued by NWS

Home | Current Version | Previous Version | Text Only | Print | Product List | Glossary On
Versions: 1 2 3 4 5 6 7 8 9 10 11 12 13 14 15 16 17 18 19 20 21 22 23 24 25 26 27 28 29 30 31 32 33 34 35 36 37 38 39 40 41 42 43 44 45 46 47 48 49 50
996
NZUS93 KARX 271010
HRRWXR

CURRENT HOURLY OBSERVATIONS ACROSS
MUCH OF THE UPPER MISSISSIPPI VALLEY
NATIONAL WEATHER SERVICE LA CROSSE WI
500 AM CDT MON MAR 27 2017


...SOUTHEAST MINNESOTA...


CITY           SKY/WX    TMP DP  RH WIND       PRES   REMARKS
ROCHESTER      CLOUDY    37  37 100 N7        29.92S FOG     WCI  32
ROCHESTER/MAYO CLOUDY    38  38 100 NW5       29.93R WCI  34
WINONA         CLOUDY    39  37  93 NW5       29.94R FOG
AUSTIN         CLOUDY    37  37 100 CALM      29.93R FOG
ALBERT LEA     CLOUDY    37  37 100 CALM      29.93S FOG
DODGE CENTER   CLOUDY    37  37 100 NW7       29.92S FOG     WCI  32
PRESTON        FOG       38  37  97 NW3       29.92S VSB 1
OWATONNA       CLOUDY    37  36  93 NW6       29.94S FOG     WCI  33
FARIBAULT      CLOUDY    37  37 100 NW5       29.95R FOG     WCI  34
$$

...ELSEWHERE IN MINNESOTA...


CITY           SKY/WX    TMP DP  RH WIND       PRES   REMARKS
MINNEAPOLIS    DRIZZLE   38  34  85 N6        29.96R WCI  33
INTNL FALLS    CLEAR     26  23  88 CALM      29.95R
DULUTH         CLOUDY    32  31  96 N6        29.91S WCI  26
RED WING       CLOUDY    39  37  93 CALM      29.94R FOG
REDWOOD FALLS  CLOUDY    40  36  86 N5        29.95R
MANKATO        CLOUDY    38  36  92 N6        29.95S WCI  33
WORTHINGTON    CLOUDY    36  34  92 NW7       29.95S WCI  30
FAIRMONT       CLOUDY    39  37  92 NW5       29.94F
$$

...SOUTHWEST WISCONSIN...


CITY           SKY/WX    TMP DP  RH WIND       PRES   REMARKS
LA CROSSE      CLOUDY    42  40  92 CALM      29.92R
PRAIRIE DU CHI CLOUDY    42  40  93 CALM      29.92S
BOSCOBEL       CLOUDY    42  41  96 CALM      29.92R FOG
LONE ROCK      CLOUDY    42  40  92 CALM      29.91S FOG
PLATTEVILLE    CLOUDY    42  42 100 CALM      29.90F VSB 1/2
FORT MC COY    CLOUDY    38  38 100 CALM      29.92S FOG
CAMP DOUGLAS   CLOUDY    39  39 100 CALM      29.90R
MAUSTON-NEW LI CLOUDY    40  40  99 CALM      29.90R FOG
VIROQUA        CLOUDY    39  39 100 CALM      29.90R VSB 1/4
WIS DELLS      CLOUDY    39  38  97 CALM      29.91R FOG
$$

...ELSEWHERE IN WISCONSIN...


CITY           SKY/WX    TMP DP  RH WIND       PRES   REMARKS
MILWAUKEE      CLOUDY    43  39  86 W6        29.89S
MADISON        CLOUDY    41  39  93 CALM      29.91R
GREEN BAY      CLOUDY    38  38 100 W6        29.90R WCI  33
EAU CLAIRE     CLOUDY    38  35  89 CALM      29.93R
BLACK RVR FLS  CLOUDY    40  40 100 CALM      29.91R FOG
MEDFORD        CLOUDY    33  33  97 NW3       29.90R
WAUSAU         CLOUDY    37  35  92 NW5       29.88R WCI  33
WIS RAPIDS     CLOUDY    39  39 100 W5        29.91R FOG
MARSHFIELD     FOG       38  36  92 NW3       29.89R VSB 1/4
RICE LAKE      CLOUDY    35  34  97 CALM      29.95R
$$

...NORTHEAST IOWA...


CITY           SKY/WX    TMP DP  RH WIND       PRES   REMARKS
WATERLOO       CLOUDY    42  40  92 NW5       29.91F FOG
DUBUQUE        CLOUDY    43  42  97 N3        29.89F FOG
DECORAH        CLOUDY    39  39 100 CALM      29.90F FOG
MASON CITY     CLOUDY    39  38  96 NW6       29.95R WCI  35
CHARLES CITY   CLOUDY    41  41 100 NW5       29.92S FOG
OELWEIN        CLOUDY    41  41 100 N6        29.91S
$$

...ELSEWHERE IN IOWA...


CITY           SKY/WX    TMP DP  RH WIND       PRES   REMARKS
DES MOINES     DRIZZLE   44  43  96 N5        29.92R
IOWA CITY      CLOUDY    47  44  90 NW5       29.91S
FORT DODGE     CLOUDY    39  36  87 N3        29.95R
MARSHALLTOWN   FOG       42  42 100 N5        29.91S VSB 1/2
CEDAR RAPIDS   CLOUDY    43  43 100 NW7       29.89S FOG
$$

...NORTHERN ILLINOIS...


CITY           SKY/WX    TMP DP  RH WIND       PRES   REMARKS
CHICAGO-OHARE  CLOUDY    50  48  93 NW6       29.89R FOG
CHICAGO-MIDWAY CLOUDY    50  49  96 SW9       29.90R FOG
MOLINE         CLOUDY    48  45  89 W3        29.89F FOG
ROCKFORD       CLOUDY    46  44  93 CALM      29.92S
PEORIA         CLOUDY    49  47  93 N3        29.89F
$$

NOTE: "FAIR" INDICATES FEW OR NO CLOUDS BELOW 12,000 FEET WITH NO
SIGNIFICANT WEATHER AND/OR OBSTRUCTIONS TO VISIBILITY. WIND
SPEEDS ARE IN MILES-PER-HOUR.




USA.gov is the U.S. government's official web portal to all federal, state and local government web resources and services.